User: anonymous   Login
Location: Rayville (historical)
(39.9992°N, 99.6815°W)
Time: 19:21:27
(UTC+00:00)
Language:

Cosmos 1862 Rocket - Orbit

View from above orbital plane
View from above orbital plane
View from above satellite
View from above satellite

Ground track
Ground track

The orbit data is extracted from the following two-line orbital elements,

1 18153U 87055B   21169.55648536  .00000100  00000-0  93543-5 0  9994
2 18153  82.4992 171.4069 0020306 308.4735  51.4657 14.83331695814052
Epoch (UTC): 18 June 2021 13:21:20
Eccentricity: 0.0020306
inclination: 82.4992°
perigee height: 604 km
apogee height: 633 km
right ascension of ascending node: 171.4069°
argument of perigee: 308.4735°
revolutions per day: 14.83331695
mean anomaly at epoch: 51.4657°
orbit number at epoch: 81405

The dashed part of the orbit path shows where the satellite is in the earth's shadow,  

DLR